This demonstration page uses our WeatherBlox Daily Observations layout. Learn more.

Left ArrowRight Arrow

39.92423, -83.80882

Hourly Observations for February 28, 2020

Temp ( °F °C ) Dew Point ( °F °C ) Humidity (%) Winds ( mph kmh ) Pressure ( in mb ) Visibility ( mi km ) Precip ( " mm )
12:10 am 00:10 Cloudy 28 -2 28 -2 100 100 WSW 12 19 30.05 1018 10 16 N/A
12:56 am 00:56 Cloudy with Light Snow 28 -2.2 28 -2.2 100 100 WNW 9 15 30.03 1017 8 13 0.00 0.00
1:07 am 01:07 Cloudy with Light Snow 28 -2 28 -2 100 100 WNW 8 13 30.05 1018 4 6 0.00 0.00
1:56 am 01:56 Mostly Cloudy 25 -3.9 25 -3.9 100 100 WNW 8 13 30.03 1017 10 16 0.00 0.00
2:06 am 02:06 Mostly Cloudy with Light Snow 25 -4 25 -4 100 100 WNW 9 15 30.05 1018 9 14 0.00 0.00
2:17 am 02:17 Mostly Cloudy 25 -4 25 -4 100 100 WNW 8 13 30.05 1018 9 14 0.00 0.00
2:56 am 02:56 Mostly Cloudy 23 -5 22 -5.6 96 96 WNW 7 11 30.02 1017 10 16 0.00 0.00
3:56 am 03:56 Clear 21 -6.1 19 -7.2 92 92 WNW 7 11 30.01 1016 10 16 N/A
4:56 am 04:56 Mostly Clear 19 -7.2 17 -8.3 92 92 W 8 13 30.01 1016 10 16 N/A
5:56 am 05:56 Clear 18 -7.8 16 -8.9 92 92 WSW 5 7 30.01 1016 10 16 N/A
6:56 am 06:56 Clear 16 -8.9 14 -10 92 92 W 7 11 30.01 1016 10 16 N/A
7:56 am 07:56 Mostly Sunny 17 -8.3 15 -9.4 92 92 W 8 13 30.02 1017 10 16 N/A
8:56 am 08:56 Cloudy 22 -5.6 17 -8.3 82 82 W 10 17 30.03 1017 10 16 N/A
9:56 am 09:56 Cloudy 24 -4.4 18 -7.8 77 77 W 13 20 30.03 1017 10 16 N/A
10:56 am 10:56 Mostly Sunny 26 -3.3 17 -8.3 69 69 WNW 17 28 30.02 1017 10 16 N/A
11:56 am 11:56 Partly Cloudy 27 -2.8 18 -7.8 69 69 W 16 26 30.02 1017 10 16 N/A
12:56 pm 12:56 Mostly Cloudy 27 -2.8 19 -7.2 72 72 W 18 30 30.02 1017 10 16 N/A
1:56 pm 13:56 Mostly Cloudy 28 -2.2 19 -7.2 69 69 WSW 17 28 30.01 1016 10 16 N/A
2:56 pm 14:56 Cloudy 28 -2.2 20 -6.7 72 72 W 20 31 30.00 1016 10 16 N/A
3:56 pm 15:56 Cloudy with Light Snow 28 -2.2 21 -6.1 75 75 W 16 26 30.01 1016 10 16 0.00 0.00
4:12 pm 16:12 Cloudy with Light Snow 28 -2 21 -6 74 74 WNW 15 24 30.02 1017 8 13 0.00 0.00
4:56 pm 16:56 Cloudy with Light Snow 27 -2.8 24 -4.4 89 89 W 12 19 30.02 1017 3 4 0.00 0.00
5:13 pm 17:13 Cloudy with Light Snow 27 -3 25 -4 93 93 WNW 13 20 30.05 1018 3 5 0.00 0.00
5:56 pm 17:56 Cloudy with Light Snow 27 -2.8 24 -4.4 89 89 WNW 14 22 30.04 1017 4 6 0.00 0.00
6:56 pm 18:56 Cloudy with Light Snow 26 -3.3 23 -5 88 88 WNW 12 19 30.06 1018 6 10 0.00 0.00
7:22 pm 19:22 Cloudy with Light Snow 25 -4 23 -5 93 93 WNW 14 22 30.09 1019 3 4 0.00 0.00
7:26 pm 19:26 Cloudy with Light Snow 25 -4 23 -5 93 93 WNW 13 20 30.09 1019 3 5 0.00 0.00
7:53 pm 19:53 Cloudy with Light Snow 25 -4 21 -6 86 86 WNW 14 22 30.09 1019 8 13 0.00 0.00
7:56 pm 19:56 Cloudy with Light Snow 25 -3.9 20 -6.7 81 81 WNW 13 20 30.07 1018 9 14 0.00 0.00
8:56 pm 20:56 Mostly Cloudy 24 -4.4 18 -7.8 77 77 NW 13 20 30.08 1019 10 16 0.00 0.00
9:11 pm 21:11 Mostly Cloudy 25 -4 18 -8 74 74 NW 15 24 30.10 1019 10 16 N/A
9:56 pm 21:56 Cloudy 23 -5 17 -8.3 78 78 NW 9 15 30.09 1019 10 16 N/A
10:27 pm 22:27 Mostly Cloudy 23 -5 18 -8 80 80 NW 13 20 30.13 1020 10 16 0.00 0.00
10:54 pm 22:54 Partly Cloudy 21 -6 18 -8 86 86 WNW 14 22 30.13 1020 10 16 0.00 0.00
10:56 pm 22:56 Mostly Clear 21 -6.1 17 -8.3 85 85 NW 13 20 30.10 1019 10 16 0.00 0.00
11:56 pm 23:56 Clear 20 -6.7 16 -8.9 85 85 WNW 10 17 30.11 1020 10 16 N/A

Powered by AerisWeather